Kosmos-2425

operational
NORAD ID: 29671 Int'l Des: 2006-062 Owner: KVR/IACG Country: RU Constellation: GLONASS
MEOCIRCULAR

Über Kosmos-2425

Beschreibung wird geladen...

Live-Position

3D-Globus wird geladen...

Nächste Überflüge

Höhenverlauf

Altitude vs Time

uPlot chart will show altitude changes over time

Zweizeiliger Elementsatz

1 29671U 06062B 25301.37819911 .00000014 00000-0 00000-0 0 9994
2 29671 64.6970 202.2390 0021634 180.2553 350.0529 2.12963631146612
Epoch: 28. Okt. 2025 • Age: 133 hours

Aktueller Status

Höhe 19140.7 km
Geschwindigkeit 3.95 km/s
Subsatellitenpunkt 62.62°N, 58.17°W
Startdatum 25. Dez. 2006
Alter 18.8 years
Typ other

Technische Details

Klassifizierung Payload
Masse 1450.00 kg
Trockenmasse 1200.00 kg
Gesamtmasse 1450.00 kg
Länge 4.00 m
Durchmesser 1.50 m
Spannweite 7.80 m
Form Cyl + Ant + 2 Pan
Hersteller RESH
Bus-Typ Uragan
Phasenstatus In Orbit
Besitzer/Staat KVR/IACG/RU

Große Konstellationen

Loading constellations...